#timestamp,LO_Frequency,Hit,StdDev 
1511110815.0,286047001.1,N
1511110815.9,286047001.1,N
1511110835.8,286046998.2,N
1511110855.6,286046998.7,N
1511110875.4,286046998.2,N
1511110895.3,286046998.4,N
1511110915.1,286046998.6,N
1511110935.9,286046998.9,N
1511110955.7,286046997.0,N
1511110975.5,286046999.5,N
1511110995.4,286046997.4,N
1511111015.2,286046997.3,N
1511111035.0,286046999.4,N
1511111036.0,286046999.4,N
1511111055.8,286046999.2,N
1511111075.6,286046997.8,N
1511111095.5,286046996.2,N
1511111115.3,286046994.1,Y
1511111135.1,286046996.7,P
1511111155.9,286046999.6,N
1511111175.7,286046998.3,N
1511111195.6,286047000.8,N
1511111215.4,286046999.9,N
1511111235.2,286047000.1,N
1511111255.1,286046998.2,N
1511111256.0,286046998.2,N
1511111275.8,286046999.6,N
1511111295.7,286046999.1,N
1511111315.5,286046997.7,N
1511111335.3,286046998.0,N
1511111355.2,286046995.9,Y
1511111375.0,286046997.3,P
1511111375.9,286046997.3,P
1511111395.8,286046997.4,P
1511111415.6,286046997.6,Y
1511111435.4,286047002.8,P
1511111455.3,286047000.3,N
1511111475.1,286046998.6,N
1511111495.8,286047000.4,N
1511111515.7,286046999.9,N
1511111535.5,286047000.2,N
1511111555.4,286046999.7,N
1511111575.2,286047000.9,N
1511111595.0,286047001.0,N
1511111595.9,286047001.0,N
1511111615.8,286047000.0,N
1511111635.6,286047001.1,N
1511111655.5,286047001.1,N
1511111675.3,286046999.2,N
1511111695.1,286046999.2,N
1511111715.9,286046999.0,N
1511111735.7,286046999.1,N
1511111755.6,286046996.6,N
1511111775.4,286046997.3,N
1511111795.2,286046999.4,N
1511111815.1,286046996.6,N
1511111816.0,286046996.6,N
1511111835.8,286046998.8,N
1511111855.7,286046998.2,N
1511111875.5,286046999.0,N
1511111895.3,286046998.7,N
1511111915.2,286046999.4,N
1511111935.0,286046995.0,Y
1511111935.9,286046995.0,P
1511111955.7,286046997.5,N
1511111975.6,286046994.9,N
1511111995.4,286046996.8,N
1511112015.3,286047000.8,N
1511112035.1,286046998.7,N
1511112055.8,286046997.5,N
1511112075.7,286046996.6,N
1511112095.5,286046996.6,N
1511112115.4,286046996.9,N
1511112135.2,286046997.4,N
1511112155.0,286046995.7,N
1511112155.9,286046995.7,N
1511112175.8,286046993.8,Y
1511112195.6,286046999.5,P
1511112215.4,286046999.2,N
1511112235.3,286046998.9,N
1511112255.1,286047000.8,N
1511112275.9,286047000.5,N
1511112295.7,286047001.6,N
1511112315.5,286047001.6,N
1511112335.4,286047001.9,N
1511112355.2,286047001.6,N
1511112375.1,286047000.1,N
1511112376.0,286047000.1,N
1511112395.8,286047003.9,N
1511112415.6,286047003.1,N
1511112435.5,286047003.0,N
1511112455.3,286047003.8,N
1511112475.2,286047001.3,N
1511112495.9,286047004.4,N
1511112515.7,286047002.8,N
1511112535.6,286047002.2,N
1511112555.4,286047002.1,N
1511112575.2,286047002.2,N
1511112595.1,286047004.3,N
1511112596.0,286047004.3,N
1511112615.8,286047004.1,N
1511112635.7,286047001.5,N
1511112655.5,286047002.0,N
1511112675.3,286047002.8,N
1511112695.2,286047000.8,N
1511112715.0,286046998.8,N
1511112715.9,286046998.8,N
1511112735.8,286046998.4,N
1511112755.6,286047002.7,N
1511112775.4,286047000.4,N
1511112795.3,286046999.4,N
1511112815.1,286047001.2,N
1511112835.9,286046998.2,N
1511112855.7,286047001.2,N
1511112875.5,286047001.0,N
1511112895.4,286047000.9,N
1511112915.2,286047002.7,N
1511112935.0,286047001.9,N
1511112935.9,286047001.9,N
1511112955.8,286047003.3,N
1511112975.6,286047003.8,N
1511112995.5,286047002.9,N
1511113015.3,286047003.6,N
1511113035.1,286047001.7,N
1511113055.9,286047003.8,N
1511113075.7,286047004.1,N
1511113095.5,286046999.8,N
1511113115.4,286047000.7,N
1511113135.2,286047001.2,N
1511113155.1,286046999.3,N
1511113156.0,286046999.3,N
1511113175.8,286046997.7,N
1511113195.6,286046996.7,N
1511113215.5,286046996.6,N
1511113235.3,286046996.9,N
1511113255.2,286046995.3,N
1511113275.9,286046997.7,N
1511113295.7,286047001.2,N
1511113315.6,286047002.4,N
1511113335.4,286047000.0,N
1511113355.2,286046998.5,N
1511113375.1,286047001.2,N
1511113376.0,286047001.2,N
1511113395.8,286047002.5,N
1511113415.7,286047003.9,N
1511113435.5,286047002.6,N
1511113455.3,286046998.6,N
1511113475.2,286047000.9,N
1511113495.0,286046999.7,N
1511113495.9,286046999.7,N
1511113515.8,286047001.4,N
1511113535.6,286047000.3,N
1511113555.4,286047001.3,N
1511113575.3,286047001.8,N
1511113595.1,286047002.6,N
1511113615.9,286047004.3,N
1511113635.7,286047001.3,N
1511113655.5,286047005.8,N
1511113675.4,286047002.9,N
1511113695.2,286047003.6,N
1511113715.0,286047004.0,N
1511113715.9,286047004.0,N
1511113735.8,286047001.4,N
1511113755.6,286047003.6,N
1511113775.5,286047001.6,N
1511113795.3,286047004.3,N
1511113815.1,286047004.2,N
1511113835.9,286047004.2,N
1511113855.7,286047003.0,N
1511113875.6,286047001.3,N
1511113895.4,286047001.8,N
1511113915.2,286047002.0,N
1511113935.1,286047002.2,N
1511113966.0,286047001.5,E
1511113975.0,286047002.5,N
1511113975.9,286047002.5,P
1511113995.8,286047002.1,P
1511114015.6,286047001.4,Y
1511114035.4,286047000.5,P
1511114055.3,286047001.0,N
1511114075.1,286047000.8,N
1511114095.9,286046998.5,N
1511114115.7,286046998.7,N
1511114135.5,286046999.0,N
1511114155.4,286047001.0,N
1511114175.2,286047000.9,N
1511114195.1,286047000.7,N
1511114196.0,286047000.7,N
1511114215.8,286047000.4,N
1511114235.6,286047001.1,N
1511114255.5,286046998.5,N
1511114275.3,286046999.1,N
1511114295.1,286046999.2,N
1511114315.9,286047000.3,N
1511114335.7,286046998.5,N
1511114355.6,286047001.1,N
1511114375.4,286046999.7,N
1511114395.2,286047001.9,N
